STARLINK-31392 (59530 NORAD) Tracking and Keplerian Element Data

This shows tracking and keplerian element data for the satellite.

Feedback or suggestion? Click here.




ElementValue
Catalog59530
NameSTARLINK-31392
Epoch Orbit919
Epoch Day159.97350855
Epoch Year2024
RAAN3.3131
Inclination43.0035
Eccentricity0.0001891
Argument of Perigee265.4727
Mean Anonmoly94.5914
Mean Motion15.40713987
Decay Rate3.065E-05
L11 59530U 24073V 24159.97350855 .00003065 00000+0 80572-4 0 9990
L22 59530 43.0035 3.3131 0001891 265.4727 94.5914 15.40713987 9198



Live tracking and technical data element details for STARLINK-31392 (NORAD 59530). STARLINK-31392 can be tracked NOW for your location showing map with azimuth and elevation plus other details from your city location.







IsCatalogInMostPopularTable: catalog: 59530, numindb: 12
Update: records affected: 1



GetName: 59530 STARLINK-31392

Hit Count: updated at: Fri, 14 Jun 2024 19:44:31 GMT